Weather History for Chicopee, MA

Change the Weather History Date:

Monday, December 3, 2012

  Actual Average Record
Temperature  
Mean Temperature 42 °F -  
Max Temperature 57 °F 40 °F 59 °F (1998)
Min Temperature 28 °F 24 °F 8 °F (2000)
Degree Days  
Heating Degree Days 22    
Moisture  
Dew Point 37 °F    
Average Humidity 91    
Maximum Humidity 100    
Minimum Humidity 55    
Precipitation  
Precipitation 0.00 in - - ()
Sea Level Pressure  
Sea Level Pressure 30.19 in    
Wind  
Wind Speed 6 mph (SW)    
Max Wind Speed 15 mph    
Max Gust Speed 28 mph    
Visibility 5 miles    
Events Fog    
Averages and records for this station are not official NWS values.
T = Trace of Precipitation, MM = Missing Value Source: NWS Daily Summary

Daily Weather History Graph

Daily Weather History Graph

Search for Another Location

Airport:

Trip Planner

Search our weather history database for the weather conditions in past years. The results will help you decide how hot, cold, wet, or windy it might be!

Date:

Astronomy

Dec. 03, 2012 Rise Set
Actual Time 7:01 AM EST 4:18 PM EST
Civil Twilight 6:30 AM EST 4:49 PM EST
Nautical Twilight 5:55 AM EST 5:24 PM EST
Astronomical Twilight 5:21 AM EST 5:58 PM EST
Moon 9:05 PM EST (12/3) 10:20 AM EST (12/3)
Length of Visible Light 10h 19m
Length of Day
9h 16m
Waning Gibbous, 78% of the Moon is Illuminated
Dec 3
Waning Gibbous
Dec 6
Last Quarter
Dec 13
New
Dec 20
First Quarter
Dec 28
Full

Hourly Weather History & Observations

Time (EST) Temp. Windchill Dew Point Humidity Pressure Visibility Wind Dir Wind Speed Gust Speed Precip Events Conditions
12:55 AM 47.1 °F - 46.6 °F 98% 30.05 in 6.0 mi South 9.2 mph - N/A   Overcast
1:34 AM 48.2 °F - 46.4 °F 93% 30.05 in 7.0 mi South 8.1 mph - N/A   Overcast
1:55 AM 46.8 °F - 46.2 °F 98% 30.06 in 6.0 mi South 8.1 mph - N/A   Mostly Cloudy
2:55 AM 47.3 °F - 46.8 °F 98% 30.07 in 7.0 mi South 3.5 mph - N/A   Overcast
3:27 AM 44.6 °F 41.4 °F 44.6 °F 100% 30.07 in 5.0 mi South 5.8 mph - N/A   Scattered Clouds
3:55 AM 43.9 °F 40.5 °F 43.3 °F 98% 30.07 in 5.0 mi South 5.8 mph - N/A   Clear
4:55 AM 45.0 °F - 44.4 °F 98% 30.10 in 4.0 mi Calm Calm - N/A   Overcast
5:55 AM 43.3 °F 39.2 °F 42.8 °F 98% 30.10 in 3.0 mi SW 6.9 mph - N/A   Scattered Clouds
6:09 AM 42.8 °F 40.1 °F 42.8 °F 100% 30.10 in 3.0 mi South 4.6 mph - N/A   Clear
6:41 AM 42.8 °F 39.3 °F 42.8 °F 100% 30.12 in 2.5 mi SSW 5.8 mph - N/A   Clear
6:43 AM 42.8 °F 39.3 °F 41.0 °F 93% 30.12 in 2.0 mi SSW 5.8 mph - N/A   Clear
6:44 AM 42.8 °F 39.3 °F 41.0 °F 93% 30.12 in 1.8 mi SSW 5.8 mph - N/A   Clear
6:45 AM 41.0 °F 37.1 °F 41.0 °F 100% 30.12 in 1.5 mi SSW 5.8 mph - N/A   Clear
6:46 AM 41.0 °F 38.0 °F 41.0 °F 100% 30.12 in 1.2 mi SSW 4.6 mph - N/A   Clear
6:47 AM 41.0 °F 38.0 °F 41.0 °F 100% 30.12 in 1.0 mi SSW 4.6 mph - N/A   Clear
6:49 AM 41.0 °F 37.1 °F 41.0 °F 100% 30.12 in 0.8 mi SSW 5.8 mph - N/A   Clear
6:51 AM 41.0 °F 35.2 °F 39.2 °F 93% 30.12 in 0.8 mi SSW 9.2 mph - N/A   Clear
6:52 AM 41.0 °F 34.7 °F 39.2 °F 93% 30.12 in 0.8 mi SSW 10.4 mph - N/A   Clear
6:53 AM 41.0 °F 34.7 °F 39.2 °F 93% 30.12 in 0.8 mi SSW 10.4 mph - N/A   Clear
6:55 AM 41.0 °F 34.7 °F 39.2 °F 93% 30.12 in 2.0 mi SW 10.4 mph - N/A Fog Scattered Clouds
7:55 AM 48.2 °F - 44.6 °F 87% 30.14 in 7.0 mi West 8.1 mph - N/A   Partly Cloudy
8:55 AM 50.0 °F - 42.8 °F 76% 30.17 in 10.0 mi WNW 15.0 mph 27.6 mph N/A   Partly Cloudy
9:55 AM 51.8 °F - 41.0 °F 67% 30.17 in 10.0 mi WNW 10.4 mph - N/A   Scattered Clouds
10:55 AM 55.4 °F - 41.0 °F 58% 30.17 in 10.0 mi WNW 11.5 mph - N/A   Scattered Clouds
11:55 AM 55.4 °F - 41.0 °F 58% 30.17 in 10.0 mi NW 9.2 mph - N/A   Scattered Clouds
12:55 PM 57.2 °F - 41.0 °F 55% 30.17 in 10.0 mi NW 11.5 mph - N/A   Mostly Cloudy
1:55 PM 55.9 °F - 40.5 °F 56% 30.16 in 10.0 mi Variable 5.8 mph - N/A   Clear
2:55 PM 54.9 °F - 40.1 °F 58% 30.18 in 10.0 mi NNW 5.8 mph - N/A   Clear
3:55 PM 51.6 °F - 39.4 °F 63% 30.19 in 10.0 mi NNW 5.8 mph - N/A   Clear
4:55 PM 44.2 °F 41.8 °F 38.1 °F 79% 30.22 in 10.0 mi SW 4.6 mph - N/A   Clear
5:55 PM 44.2 °F - 37.8 °F 78% 30.25 in 10.0 mi Calm Calm - N/A   Clear
6:55 PM 36.5 °F - 34.7 °F 93% 30.27 in 10.0 mi Calm Calm - N/A   Clear
7:55 PM 33.6 °F - 32.9 °F 97% 30.26 in 10.0 mi Calm Calm - N/A   Clear
8:55 PM 34.2 °F - 33.3 °F 97% 30.27 in 10.0 mi Calm Calm - N/A   Clear
9:47 PM 30.2 °F - 28.4 °F 93% 30.28 in 2.0 mi Calm Calm - N/A   Clear
9:49 PM 28.4 °F - 28.4 °F 100% 30.28 in 1.8 mi Calm Calm - N/A   Clear
9:53 PM 30.2 °F - 28.4 °F 93% 30.28 in 2.0 mi Calm Calm - N/A   Clear
9:55 PM 29.8 °F - 29.3 °F 98% 30.28 in 2.0 mi Calm Calm - N/A   Clear
9:56 PM 30.2 °F - 30.2 °F 100% 30.28 in 3.0 mi Calm Calm - N/A   Clear
10:33 PM 30.2 °F - 28.4 °F 93% 30.28 in 2.5 mi Calm Calm - N/A   Clear
10:34 PM 28.4 °F 24.6 °F 28.4 °F 100% 30.28 in 2.0 mi NNE 3.5 mph - N/A   Clear
10:40 PM 28.4 °F - 28.4 °F 100% 30.28 in 7.0 mi North 2.3 mph - N/A   Clear
10:55 PM 29.7 °F - 28.9 °F 97% 30.30 in 10.0 mi Calm Calm - N/A   Clear
11:04 PM 28.4 °F 24.6 °F 28.4 °F 100% 30.30 in 2.5 mi ENE 3.5 mph - N/A   Clear
11:05 PM 28.4 °F 24.6 °F 28.4 °F 100% 30.30 in 1.8 mi ENE 3.5 mph - N/A   Clear
11:06 PM 28.4 °F 24.6 °F 28.4 °F 100% 30.30 in 1.2 mi ENE 3.5 mph - N/A   Clear
11:08 PM 28.4 °F - 26.6 °F 93% 30.30 in 1.0 mi Calm Calm - N/A   Clear
11:14 PM 28.4 °F - 28.4 °F 100% 30.30 in 1.2 mi Calm Calm - N/A   Clear
11:15 PM 28.4 °F - 28.4 °F 100% 30.30 in 1.8 mi Calm Calm - N/A   Clear
11:16 PM 28.4 °F - 28.4 °F 100% 30.30 in 2.0 mi Calm Calm - N/A   Clear
11:17 PM 28.4 °F - 28.4 °F 100% 30.30 in 3.0 mi Calm Calm - N/A   Clear
11:55 PM 29.1 °F - 28.6 °F 98% 30.30 in 9.0 mi Calm Calm - N/A   Clear